AKDT,Max TemperatureF,Mean TemperatureF,Min TemperatureF,Max Dew PointF,MeanDew PointF,Min DewpointF,Max Humidity, Mean Humidity, Min Humidity, Max Sea Level PressureIn, Mean Sea Level PressureIn, Min Sea Level PressureIn, Max VisibilityMiles, Mean VisibilityMiles, Min VisibilityMiles, Max Wind SpeedMPH, Mean Wind SpeedMPH, Max Gust SpeedMPH,PrecipitationIn, CloudCover, Events, WindDirDegrees
2012-10-1,44,43,42,45,43,41,100,94,93,29.67,29.60,29.48,10,5,3,29,21,40,0.61,8,Rain,176
2012-10-2,44,42,39,44,41,37,100,95,79,29.67,29.56,29.45,10,6,0,23,9,26,0.03,7,Fog-Rain,26
2012-10-3,46,45,44,47,45,43,100,98,93,29.50,29.04,28.74,10,4,1,28,22,37,0.53,8,Rain,122
2012-10-4,44,43,42,45,42,39,100,95,87,29.37,28.99,28.75,10,4,1,43,29,54,0.37,8,Rain,203
2012-10-5,45,42,41,43,40,36,100,90,79,29.83,29.63,29.38,10,8,3,22,19,31,0.02,7,Rain,233
2012-10-6,46,43,41,41,40,36,96,89,82,29.94,29.87,29.84,10,10,8,18,14,,0.02,7,Rain,121
2012-10-7,43,42,42,43,42,39,100,98,87,29.89,29.81,29.73,10,4,1,45,26,53,0.42,8,Rain,42
2012-10-8,46,44,42,46,45,42,100,99,96,29.86,29.83,29.80,10,4,0,28,18,33,0.52,8,Fog-Rain,97
2012-10-9,46,45,44,46,45,43,100,98,93,29.90,29.85,29.78,10,4,0,26,19,34,0.00,7,Fog,97
2012-10-10,46,44,41,45,43,41,100,99,93,29.82,29.69,29.51,7,3,0,29,21,36,0.00,7,Fog,66
2012-10-11,46,44,42,45,42,41,100,95,87,29.55,29.42,29.34,10,8,7,32,26,39,0.00,5,,55
2012-10-12,43,40,37,40,36,27,100,85,65,29.54,29.41,29.34,10,10,10,38,30,48,0.00,4,,36
2012-10-13,37,35,33,32,28,24,93,75,62,29.73,29.65,29.54,10,7,2,33,26,47,0.01,8,Snow,8
2012-10-14,39,36,33,36,32,25,93,84,70,29.75,29.72,29.69,10,9,4,28,22,41,0.03,8,Rain-Snow,333
2012-10-15,36,33,30,34,28,20,93,78,52,30.02,29.88,29.71,10,7,1,23,16,40,0.08,7,Snow,353
2012-10-16,36,32,30,30,25,17,93,75,54,30.27,30.17,30.02,10,7,1,21,14,33,0.01,6,Snow,347
2012-10-17,41,34,30,35,30,25,100,84,70,30.40,30.33,30.27,10,9,3,21,8,30,0.02,8,Rain-Snow,330
2012-10-18,37,35,33,32,28,25,93,78,67,30.49,30.45,30.39,10,9,2,16,9,21,0.04,7,Snow,344
2012-10-19,39,36,33,35,30,26,93,81,60,30.55,30.51,30.47,10,10,9,6,1,,0.00,8,,37
2012-10-20,43,38,33,39,36,30,93,85,76,30.52,30.41,30.24,10,10,7,24,10,31,0.01,7,Rain,181
2012-10-21,45,38,32,43,40,30,100,92,81,30.33,30.21,30.12,10,7,1,23,16,33,0.13,5,Rain,243
2012-10-22,41,36,30,38,36,30,100,93,86,30.35,30.27,30.11,10,10,10,39,12,50,0.00,6,,100
2012-10-23,43,40,37,38,35,33,96,84,76,30.19,30.07,29.99,10,10,7,41,33,53,0.00,5,,98
2012-10-24,39,37,35,34,32,30,93,82,73,30.31,30.26,30.20,10,10,10,21,17,26,0.00,4,,64
2012-10-25,37,36,35,30,29,28,81,75,70,30.38,30.35,30.30,10,10,10,17,12,,0.00,8,,66
2012-10-26,41,38,35,34,31,26,87,77,65,30.37,30.26,30.10,10,10,10,26,20,33,0.00,4,,53
2012-10-27,41,38,36,36,33,30,87,82,75,30.10,30.04,30.00,10,10,10,25,20,31,0.00,3,,50
2012-10-28,41,34,28,35,32,28,96,86,79,30.17,30.11,30.05,10,10,10,12,8,,0.00,4,,42
2012-10-29,37,32,27,36,33,26,100,92,86,30.40,30.29,30.17,10,9,2,32,14,40,0.01,6,Snow,36
2012-10-30,34,32,30,30,24,20,87,69,59,30.48,30.43,30.38,10,9,4,31,28,41,0.00,8,Snow,40
2012-10-31,35,32,30,26,23,19,80,70,56,30.39,30.26,30.14,10,7,2,31,24,55,0.00,8,Snow,3